Location: Beaver Brook Trail
(44.0290°N, 71.8137°W)
Time: 18:33:52
(UTC+00:00)

Altair - Visible Passes

Search period start: 07 November 2024 00:00
Search period end: 17 November 2024 00:00
Orbit: 1501 x 1682 km, 47.2° (Epoch: 06 November)

Date Brightness Start Highest point End Pass type
(mag) Time Alt. Az. Time Alt. Az. Time Alt. Az.
07 Nov 8.5 23:28:38 10° WNW 23:37:07 42° SW 23:45:50 10° SSE visible
08 Nov 8.4 23:03:23 10° WNW 23:11:58 45° SW 23:20:49 10° SSE visible
09 Nov 9.7 01:12:15 10° WSW 01:14:52 11° WSW 01:17:30 10° SW visible
09 Nov 8.4 22:38:08 10° WNW 22:46:50 48° SW 22:55:47 10° SSE visible
10 Nov 9.7 00:45:59 10° W 00:49:48 13° WSW 00:53:41 10° SSW visible
10 Nov 8.3 22:12:54 10° WNW 22:21:42 52° SW 22:30:44 10° SE visible
11 Nov 9.7 00:20:05 10° W 00:24:45 15° SW 00:29:29 10° SSW visible
11 Nov 8.3 21:47:41 10° WNW 21:56:32 55° SW 22:05:39 10° SE visible
11 Nov 9.7 23:54:22 10° W 23:59:42 17° SW 00:05:07 10° SSW visible
12 Nov 9.7 23:28:46 10° W 23:34:38 19° SW 23:40:36 10° SSW visible
13 Nov 9.7 23:03:15 10° W 23:09:34 21° SW 23:16:00 10° S visible
14 Nov 9.7 22:37:46 10° W 22:44:29 23° SW 22:51:19 10° S visible
15 Nov 9.6 22:12:21 10° W 22:19:24 25° SW 22:26:35 10° S visible
16 Nov 9.6 21:46:59 10° WNW 21:54:19 28° SW 22:01:48 10° S visible
